Location: Fort Worth, Tx
(32.7431°N, 97.3695°W)
Time: 06:10:52
(UTC-05:00)

Tiros 1 - Pass Details

Date: 21 November 2024
Orbit: 622 x 653 km, 48.4° (Epoch: 05 December)

Event Time Altitude Azimuth Distance (km) Brightness Sun altitude
Rises 20:46:14 0° 315° (NW) 2,959 11.1 -29.4°
Reaches altitude 10° 20:48:43 10° 323° (NW) 2,051 10.0 -29.9°
Enters shadow 20:50:01 18° 332° (NNW) 1,610 9.4 -30.2°
